星链-6118 (STARLINK-6118 )

导读

STARLINK-6118是美国太空探索技术公司(SpaceX)星链(Starlink)计划中的卫星,于2023年6月23日发射入轨,属于星链卫星互联网星座的组成部分。星链项目旨在通过近地轨道卫星群,为全球提供高速互联网接入服务,该卫星的成功发射进一步扩充了星链星座的组网规模。

Basic Information
目录编号:
57106
目录名称:
STARLINK-6118
国际标识:
2023-090F
轨道中心:
EARTH
卫星名称:
星链-6118
卫星全名:
星链-6118 (STARLINK-6118 )
卫星状态:
在轨 (已飞行1088 天)
发射日期:
2023-06-23 UTC
国别 :
美国 (US)
星等 :
--
Orbit Information
数据来源 国际轨道数据 AOE轨道数据
星历时间 2026-06-14T09:56:41+0800
22小时前
查看轨道信息
2026-06-11T01:00:00+0800
4天前
查看轨道信息
半长轴 6861.191km 6861.199km
偏心率 0.0001297 0.0001143
轨道倾角 43.007° 43.001°
近地点辐角 261.004° 257.980°
升交点赤经 97.239° 116.286°
平近点角 99.066° 252.966°
近地点 482.164km 482.277km
远地点 483.944km 483.847km
周期 94.267分钟 94.267分钟
每日圈数 15.275786 15.275758
Detailed Information
固有亮度:
5
最大亮度:
2.4
卫星平台:
Starlink v1.5
覆盖范围:
全球
运营商:
太空探索技术公司
运营商所在国:
美国
制造商(研发单位):
太空探索技术公司
制造商所在国:
美国
使用方式:
暂无
Satellite Introduction
星链(Starlink)计划是由太空探索技术公司(SpaceX)提出的一个巨型低轨卫星互联网星座项目,计划在2019年至2024年间在太空搭建由约1.2万颗卫星组成的“星链”网络,其中1584颗将部署在地球上空550千米处的近地轨道,并从2020年开始工作。该卫星仍在工作。
2D Orbit Map
3D Orbit Map
Orbit Altitude Analysis Chart
Orbit Inclination Analysis Chart
Orbit Comprehensive Analysis Chart
View Comprehensive Chart